Weather History for Princeton, BC

Change the Weather History Date:

Friday, September 21, 2012

  Actual Average Record
Temperature  
Mean Temperature 64 °F -  
Max Temperature 89 °F - - ()
Min Temperature 39 °F - - ()
Degree Days  
Heating Degree Days 1    
Growing Degree Days 14 (Base 50)    
Moisture  
Dew Point 33 °F    
Average Humidity 39    
Maximum Humidity 75    
Minimum Humidity 7    
Precipitation  
Precipitation 0.00 in - - ()
Sea Level Pressure  
Sea Level Pressure 30.06 in    
Wind  
Wind Speed 0 mph ()    
Max Wind Speed 6 mph    
Max Gust Speed -    
T = Trace of Precipitation, MM = Missing Value Source: Averaged Metar Reports

Daily Weather History Graph

Daily Weather History Graph

Search for Another Location

Airport:

Trip Planner

Search our weather history database for the weather conditions in past years. The results will help you decide how hot, cold, wet, or windy it might be!

Date:

Astronomy

Sep. 21, 2012 Rise Set
Actual Time 6:47 AM PDT 7:00 PM PDT
Civil Twilight 6:15 AM PDT 7:32 PM PDT
Nautical Twilight 5:38 AM PDT 8:10 PM PDT
Astronomical Twilight 4:59 AM PDT 8:49 PM PDT
Moon 1:48 PM PDT (9/21) 10:32 PM PDT (9/21)
Length of Visible Light 13h 16m
Length of Day
12h 12m
Waxing Crescent, 38% of the Moon is Illuminated
Sep 21
Waxing Crescent
Sep 22
First Quarter
Sep 29
Full
Oct 8
Last Quarter
Oct 15
New

Hourly Weather History & Observations

Time (PDT) Temp. Dew Point Humidity Pressure Visibility Wind Dir Wind Speed Gust Speed Precip Events Conditions
12:00 AM 53.1 °F 33.8 °F 48% 30.11 in - Calm Calm - N/A   Unknown
1:00 AM 53.1 °F 35.2 °F 51% 30.12 in - Calm Calm - N/A   Unknown
2:00 AM 50.7 °F 34.7 °F 54% 30.12 in - Calm Calm - N/A   Unknown
3:00 AM 48.2 °F 35.4 °F 61% 30.13 in - Calm Calm - N/A   Unknown
4:00 AM 45.3 °F 34.2 °F 65% 30.13 in - Calm Calm - N/A   Unknown
5:00 AM 43 °F 34 °F 60% 30.15 in - Calm Calm - -  
5:00 AM 43.3 °F 33.8 °F 69% 30.15 in - Calm Calm - N/A   Unknown
6:00 AM 41.2 °F 31.3 °F 68% 30.17 in - Calm Calm - N/A   Unknown
7:00 AM 39.0 °F 31.8 °F 75% 30.19 in - Calm Calm - N/A   Unknown
8:00 AM 44.2 °F 34.2 °F 68% 30.19 in - Calm Calm - N/A   Unknown
9:00 AM 50.2 °F 35.6 °F 57% 30.18 in - Calm Calm - N/A   Unknown
10:00 AM 55.4 °F 35.2 °F 47% 30.16 in - Calm Calm - N/A   Unknown
11:00 AM 62 °F 34 °F 24% 30.13 in - Calm Calm - -  
11:00 AM 61.5 °F 34.3 °F 36% 30.13 in - Calm Calm - N/A   Unknown
12:00 PM 69.1 °F 34.9 °F 28% 30.08 in - Calm Calm - N/A   Unknown
1:00 PM 74.7 °F 35.1 °F 24% 30.04 in - Calm Calm - N/A   Unknown
2:00 PM 78.8 °F 34.2 °F 20% 29.99 in - Calm Calm - N/A   Unknown
3:00 PM 84.6 °F 35.2 °F 17% 29.96 in - Calm Calm - N/A   Unknown
4:00 PM 87.1 °F 30.2 °F 13% 29.94 in - Calm Calm - N/A   Unknown
5:00 PM 87 °F 31 °F 7% 29.93 in - ESE 2.3 mph - -  
5:00 PM 87.3 °F 31.5 °F 14% 29.93 in - ESE 2.3 mph - N/A   Unknown
6:00 PM 82.9 °F 31.8 °F 16% 29.93 in - ESE 3.5 mph - N/A   Unknown
7:00 PM 76.6 °F 28.6 °F 17% 29.93 in - NW 5.8 mph - N/A   Unknown
8:00 PM 70.2 °F 31.5 °F 24% 29.95 in - Calm Calm - N/A   Unknown
9:00 PM 66.4 °F 31.8 °F 28% 29.97 in - West 2.3 mph - N/A   Unknown
10:00 PM 61.7 °F 32.9 °F 34% 29.98 in - Calm Calm - N/A   Unknown
11:00 PM 59 °F 34 °F 26% 29.99 in - Calm Calm - -  
11:00 PM 59.4 °F 33.6 °F 38% 29.99 in - Calm Calm - N/A   Unknown